Theta_e
305 304 304 303 303 302 302 302 302 303 304 304 303 303 303 302 303 303 303 304 305 306 306 305 305 305 305 305 305 306 306 306 306 306 307 308 307 307 308 308 310 313 313 313 312 310 309 308 309 310 311 312 311 312 311 311 311 311 316 317 314 317 316 317 321 315 314 315 314 311 310 319 324 325 329 329 330 330 330 331 331 331 330 332 333 335 339 339
304 304 304 303 303 303 302 302 303 304 305 304 304 304 303 303 303 303 303 304 305 305 305 305 305 305 305 305 305 306 306 306 306 307 307 308 307 307 307 308 311 313 313 312 310 308 308 308 309 310 311 311 310 310 310 310 310 312 315 315 316 320 315 313 317 314 313 313 313 311 312 320 323 324 328 329 328 327 331 333 332 333 335 334 335 337 338 336
304 304 303 303 302 302 302 302 304 305 305 305 303 304 303 302 303 303 304 305 305 305 305 305 305 305 305 305 306 306 306 306 308 309 309 309 308 307 307 309 311 312 313 311 309 309 308 308 309 310 310 310 310 310 310 310 310 311 311 314 318 318 313 311 311 312 313 312 311 310 314 321 322 323 326 327 326 327 332 334 334 335 335 335 337 338 336 335
304 303 303 302 303 303 305 306 307 306 306 306 304 304 303 303 303 303 304 304 305 304 304 305 305 305 305 305 306 305 305 310 313 313 312 311 308 307 308 309 311 312 312 311 309 309 308 308 309 310 310 311 310 310 310 310 310 310 311 315 317 312 312 313 311 313 313 312 311 310 315 320 320 323 325 326 328 330 329 330 332 333 334 334 336 336 335 334
303 303 304 305 307 308 310 310 310 309 307 306 305 304 304 303 303 303 304 304 304 304 304 305 305 305 305 305 304 304 307 314 315 313 312 312 310 309 309 310 311 312 312 311 310 309 308 309 309 310 311 311 310 310 310 310 310 310 310 311 312 309 311 313 312 312 313 313 311 311 315 318 319 323 325 326 331 331 327 328 329 328 330 332 332 333 332 331
305 307 308 310 311 312 312 312 312 311 309 307 305 304 304 303 303 302 303 303 304 304 304 304 304 304 304 304 304 304 309 315 315 313 312 311 311 311 311 311 312 312 311 310 310 309 308 308 309 310 310 310 310 310 311 310 309 311 311 308 309 310 310 312 312 312 312 312 311 312 314 317 320 324 325 325 326 326 325 327 328 328 328 328 330 329 328 329
310 311 312 312 312 312 311 312 312 311 310 308 306 305 303 304 303 303 303 303 303 303 303 304 303 303 303 303 305 307 309 313 315 314 314 313 312 312 312 312 312 312 311 311 309 308 308 309 310 311 310 311 310 309 311 310 308 311 311 309 310 310 309 312 312 311 312 311 312 313 312 315 322 325 324 323 322 321 323 326 327 330 331 330 330 328 326 327
313 312 312 311 311 311 311 312 311 310 310 309 307 305 304 304 304 304 303 303 303 303 303 303 303 303 304 304 306 310 311 313 315 314 315 314 312 312 314 313 312 313 312 310 308 308 309 310 311 311 311 311 310 309 310 310 310 310 311 310 309 310 310 312 313 312 311 311 312 314 313 313 319 323 323 323 321 320 322 325 328 331 332 331 330 329 327 326
313 312 312 311 311 311 311 312 311 310 309 308 307 306 305 304 304 304 304 304 304 303 303 303 304 303 304 304 306 313 315 314 313 312 313 314 311 310 312 313 312 312 311 309 308 308 310 310 311 312 312 311 311 311 310 311 313 310 310 310 310 311 312 311 312 311 311 311 312 313 314 314 317 321 322 322 321 321 323 325 329 331 331 331 330 328 327 325
312 313 312 311 311 311 312 312 311 311 311 309 308 305 304 304 304 304 304 304 304 305 304 304 304 304 304 305 308 315 315 312 312 310 310 310 308 307 308 309 308 308 308 307 309 310 312 312 313 312 312 312 311 311 310 311 312 311 310 310 310 310 310 310 311 311 310 312 312 313 316 315 315 318 321 320 320 322 324 327 330 331 331 330 330 327 326 324
313 313 313 312 311 311 312 312 313 313 313 313 310 307 304 303 304 304 304 305 304 305 305 305 304 304 305 305 308 315 314 312 312 309 308 309 308 308 307 307 307 307 308 309 311 312 312 312 313 312 312 312 311 311 310 310 312 311 310 311 310 309 310 310 310 310 311 312 311 313 314 312 313 316 318 319 321 324 324 328 331 331 331 330 329 327 325 324
314 313 314 313 312 311 311 312 313 313 314 314 313 311 307 304 304 304 305 305 304 304 305 305 305 304 305 306 309 314 314 312 312 309 309 310 310 311 310 310 311 311 311 311 312 312 312 312 312 312 312 312 311 311 311 312 312 311 310 311 313 315 314 311 309 310 311 313 312 312 313 315 315 313 317 320 322 325 324 328 332 331 330 329 329 327 325 324
314 314 314 313 313 312 312 312 312 312 313 313 313 313 313 308 304 305 305 305 305 305 305 305 305 305 306 310 313 315 313 313 313 310 310 312 312 312 312 312 312 312 312 312 312 312 312 312 312 312 312 311 312 311 312 311 310 312 310 310 315 319 316 310 310 311 311 312 311 311 315 324 323 312 316 324 322 324 323 325 330 330 330 329 328 327 325 323
311 313 314 313 312 313 312 311 311 311 311 312 312 313 317 314 308 306 305 305 305 305 305 305 306 307 309 312 315 315 314 314 314 312 311 312 312 312 311 312 311 311 311 311 312 311 311 312 311 311 311 311 311 310 313 313 313 314 309 312 316 313 316 313 310 312 313 312 311 311 315 322 321 312 317 324 322 324 322 323 327 328 329 329 328 326 325 322
308 311 312 312 312 312 312 311 311 311 310 312 312 313 319 318 312 308 305 305 305 306 306 305 307 310 312 313 313 314 315 315 315 314 312 312 311 311 311 311 310 311 311 311 311 310 310 311 310 310 311 311 313 314 317 317 318 316 310 317 319 313 316 316 310 311 312 313 312 313 315 319 317 313 319 323 323 325 322 321 324 326 329 329 328 326 324 322
307 308 310 310 311 310 310 310 310 310 310 312 312 314 319 320 316 311 308 307 305 306 306 306 307 310 312 313 313 314 315 315 316 314 313 312 311 311 311 311 311 311 310 311 311 310 310 310 310 311 310 311 314 318 319 321 325 322 316 316 316 313 314 315 311 308 309 312 312 312 315 319 315 310 317 323 322 323 322 321 321 322 326 328 328 325 323 322
306 306 307 308 309 309 309 309 309 308 310 312 312 315 317 317 318 314 311 310 308 308 308 308 307 309 312 313 313 315 315 316 315 315 315 313 312 312 311 311 311 311 311 311 311 310 310 310 311 311 314 317 319 319 316 319 325 325 325 321 315 314 314 316 316 310 310 313 313 314 313 315 315 309 312 321 321 322 321 321 321 320 322 325 325 324 322 321
304 305 306 307 308 308 308 308 308 308 310 312 313 315 316 314 316 316 314 313 311 311 311 308 307 311 313 312 314 315 315 315 315 315 314 314 313 312 312 312 311 311 312 311 311 312 311 310 312 317 323 325 325 321 318 321 320 317 325 324 318 318 315 316 318 314 315 316 313 314 313 314 317 311 311 317 320 321 321 320 320 320 320 322 322 321 321 320
304 305 305 306 307 307 307 307 307 308 310 313 313 315 316 312 313 317 316 314 313 313 313 310 310 314 315 313 315 315 315 315 315 315 314 314 313 312 313 312 311 311 310 312 313 312 311 311 313 317 322 323 322 321 320 321 318 315 322 323 319 319 317 318 319 315 314 315 314 314 314 316 316 314 311 314 319 318 319 320 319 319 319 320 321 321 320 320
305 305 304 305 305 306 307 307 308 310 311 314 314 314 315 313 315 317 316 315 314 313 313 313 312 314 314 315 315 315 315 315 315 315 314 313 312 312 313 311 311 311 311 314 314 311 312 316 317 318 321 322 323 323 319 319 319 320 324 325 320 318 319 319 318 319 314 312 315 317 319 318 318 323 316 311 316 316 315 318 318 318 318 319 320 321 321 320
304 305 305 304 305 305 307 308 309 312 313 313 313 314 314 314 316 317 315 314 313 313 313 313 313 313 314 315 315 315 315 315 315 314 314 312 313 312 311 311 311 312 313 310 311 314 314 316 320 323 324 321 322 323 321 318 319 320 321 320 318 318 320 318 316 322 318 311 317 320 320 320 323 330 320 310 313 314 314 316 316 318 318 318 320 320 321 320
305 305 305 304 305 306 308 309 311 312 313 313 313 314 314 314 315 315 315 315 314 313 313 313 313 314 315 314 315 315 315 316 315 315 314 312 312 312 309 311 312 314 314 309 312 320 318 318 321 321 320 319 322 323 322 321 321 322 320 318 321 320 319 320 321 325 321 314 320 322 318 325 331 332 324 314 313 313 315 317 318 319 318 318 319 320 321 321
305 305 305 305 306 308 309 311 313 313 313 313 313 314 314 314 313 313 314 316 315 315 315 314 313 313 314 314 315 315 315 317 316 315 316 313 312 311 309 311 313 315 313 313 316 316 315 320 319 314 317 320 322 322 320 320 323 325 321 318 322 320 317 322 325 327 323 315 317 320 318 328 335 335 330 316 309 311 313 315 316 317 318 318 318 319 320 320
305 305 305 306 308 309 311 312 313 313 312 313 313 313 313 313 311 311 314 316 317 317 316 316 314 313 314 315 316 317 316 316 317 315 315 314 311 310 310 310 312 312 311 317 322 315 314 317 313 314 321 319 317 320 320 318 321 326 325 320 322 323 319 320 323 326 327 319 318 319 319 331 335 332 332 318 310 313 311 311 313 314 315 317 318 319 319 320
305 305 305 307 309 310 312 313 313 313 313 313 313 313 313 312 310 310 314 319 322 322 318 315 316 315 315 316 316 317 316 316 316 315 315 314 312 311 310 309 310 312 313 316 318 315 314 312 310 315 322 319 317 321 324 322 323 327 329 325 325 328 321 319 323 327 329 325 320 315 317 336 338 328 329 324 319 319 312 311 313 312 314 315 317 319 318 319
304 305 305 307 310 311 312 313 311 312 314 314 313 313 312 311 311 310 315 325 328 324 318 315 316 315 315 316 316 315 316 316 314 315 315 313 313 311 311 310 309 311 315 315 313 316 316 313 314 318 323 323 319 321 325 323 321 322 326 327 326 327 323 322 323 322 324 322 317 316 318 329 333 330 329 324 324 324 318 316 314 311 313 314 315 318 318 319
304 305 305 306 308 310 312 311 310 312 314 313 313 312 310 310 311 311 319 328 325 317 315 315 314 314 314 313 314 314 315 315 313 313 314 313 313 311 312 314 310 309 312 311 312 316 316 315 318 324 329 327 321 324 325 320 321 323 324 324 325 325 325 325 323 321 324 320 318 324 323 318 325 331 328 320 320 324 323 324 319 309 310 313 312 314 316 318
304 305 305 306 306 308 309 309 310 312 313 313 313 311 309 311 314 317 324 324 316 313 314 313 313 312 313 313 313 314 314 314 313 312 312 313 312 310 312 314 313 313 311 309 315 317 314 314 316 322 326 323 325 332 325 318 321 325 322 322 324 323 324 327 325 322 322 316 319 329 320 314 325 332 325 318 318 322 323 325 322 311 310 312 311 312 312 314
304 305 305 306 307 308 308 309 311 313 313 313 310 308 310 313 316 320 323 318 313 313 313 312 314 312 312 312 313 313 313 313 313 312 311 311 311 311 311 310 310 313 309 308 316 318 312 311 313 318 320 322 331 332 322 320 321 319 317 319 320 320 322 324 324 322 319 315 321 330 319 314 325 331 325 317 315 321 323 322 318 311 310 312 312 312 312 312
304 305 305 307 311 313 312 312 312 312 312 310 308 310 314 317 322 323 319 314 313 314 312 312 312 310 310 312 312 312 311 312 312 311 311 311 311 310 309 309 309 312 316 315 315 315 310 308 312 316 316 322 329 320 313 316 315 312 318 321 317 320 322 323 325 321 315 317 324 326 321 313 319 329 327 318 315 318 319 319 316 311 310 311 311 312 313 312
305 305 305 307 311 313 311 309 309 309 308 309 310 314 318 320 327 327 318 313 315 315 312 311 311 310 311 311 312 311 310 311 310 310 313 311 310 310 309 311 311 315 327 326 316 314 312 310 314 315 312 314 318 313 309 310 312 314 323 324 317 320 321 320 324 319 314 322 324 320 318 314 316 325 323 317 315 314 314 315 315 312 310 309 310 312 313 312
306 305 307 310 311 312 310 308 309 308 309 312 312 316 323 323 322 323 318 315 316 315 311 309 310 309 310 312 312 310 310 311 309 310 313 311 311 313 311 314 316 316 323 322 316 317 319 316 314 312 311 311 314 316 312 310 315 318 321 322 317 317 318 319 321 318 317 322 318 314 316 313 317 322 318 315 315 313 311 311 311 311 309 309 310 312 313 313
309 308 312 315 314 314 313 312 310 309 311 315 313 317 327 326 320 321 322 318 313 312 310 308 309 309 310 314 312 309 310 310 309 310 311 310 312 315 314 314 314 312 315 314 314 318 322 323 316 311 312 311 312 319 317 314 316 315 317 321 319 317 317 319 319 315 317 319 314 314 315 315 319 319 315 314 312 311 310 309 309 308 307 307 310 312 313 312
310 311 314 316 317 315 315 315 312 309 310 314 315 317 319 320 319 319 320 318 312 311 309 307 310 310 310 312 310 309 312 311 309 311 312 313 313 316 316 312 309 313 317 314 314 317 317 320 319 314 311 311 312 317 321 322 317 313 316 316 318 320 319 319 319 315 316 316 314 311 314 320 321 314 313 312 309 309 309 308 308 307 306 306 309 312 313 312
312 314 313 315 317 316 315 314 312 309 306 312 321 322 317 318 321 318 316 316 313 310 309 308 310 312 312 314 312 309 310 311 310 313 315 313 312 314 314 311 310 314 317 315 315 315 311 315 320 314 309 310 311 310 313 319 316 311 312 312 315 320 321 316 314 315 316 316 316 313 315 323 320 312 312 312 310 309 307 306 306 306 305 306 307 309 311 313
312 314 314 316 316 317 315 312 311 308 306 316 326 324 321 321 319 316 313 312 310 308 311 312 313 314 313 315 316 311 309 309 311 315 317 312 310 312 312 312 311 311 313 315 317 315 311 317 321 314 310 311 310 309 309 311 315 312 310 313 314 315 322 319 310 312 314 314 316 315 315 318 317 314 315 314 313 312 308 307 305 305 305 306 306 307 308 311
310 312 316 317 316 315 313 309 310 308 309 322 326 321 322 320 314 313 312 309 308 310 312 313 312 311 310 313 317 315 310 310 310 311 315 313 310 311 313 312 310 311 311 311 313 314 312 319 322 315 312 311 307 308 310 307 310 314 312 315 313 311 320 322 314 316 316 315 319 317 314 315 317 318 316 313 312 311 310 308 305 304 305 305 306 307 307 309
308 312 316 316 314 312 309 308 310 310 315 326 329 322 319 316 310 309 308 306 308 311 312 312 309 308 309 310 314 314 310 311 312 310 313 314 310 309 312 311 309 310 309 307 310 313 311 317 323 315 311 313 310 310 314 311 309 312 312 312 313 316 322 320 317 320 316 313 320 319 313 313 317 318 315 313 312 310 309 309 308 306 305 304 306 307 307 308
307 312 314 312 311 310 309 308 307 311 317 323 327 323 317 315 312 307 307 307 308 310 311 311 308 308 310 310 312 312 309 310 311 309 310 311 309 307 308 309 309 308 307 308 312 314 312 314 319 317 310 311 314 313 318 320 313 312 313 311 315 322 322 317 314 317 316 315 320 319 313 314 318 318 316 314 314 311 309 310 309 306 304 305 306 307 308 308
306 312 315 312 311 310 309 309 310 315 317 314 321 323 315 312 311 307 306 308 308 310 310 310 309 308 310 311 310 310 309 310 310 309 309 310 308 308 307 307 308 308 307 310 313 316 314 310 316 323 315 311 316 316 318 322 316 314 316 315 315 314 313 313 311 311 314 317 320 317 314 319 321 315 313 314 316 315 311 310 308 305 304 305 306 308 308 308
305 310 314 312 311 311 309 309 311 318 320 313 314 317 311 308 309 308 307 307 307 309 309 311 311 311 312 311 309 309 309 311 310 309 310 309 307 308 307 306 306 307 311 314 315 314 313 312 318 323 318 316 320 315 312 314 315 317 317 314 316 315 313 313 312 312 313 313 316 315 315 322 319 312 314 316 316 314 309 307 307 305 305 306 307 308 308 308
305 307 309 309 310 310 309 309 308 309 316 312 308 309 308 308 308 307 306 307 307 307 308 310 311 313 314 311 310 310 309 309 310 309 309 308 307 308 307 306 306 306 309 312 311 310 312 315 317 317 316 316 316 309 304 306 310 313 312 311 316 319 317 315 316 319 316 311 312 312 314 322 319 314 317 314 310 309 305 305 306 304 305 307 308 308 308 308
304 305 306 307 309 309 309 313 312 311 313 310 306 307 307 306 306 307 306 306 307 307 308 311 309 309 311 308 308 309 307 309 309 309 310 309 307 307 306 307 309 309 309 313 312 309 312 314 312 315 319 317 313 308 304 306 309 309 308 308 311 315 316 317 318 318 315 314 314 312 314 321 319 315 313 307 305 306 305 306 305 304 306 307 307 308 308 307
303 304 306 306 308 309 309 311 312 315 314 310 309 310 308 306 306 307 307 306 306 307 310 311 307 306 307 306 308 308 306 308 308 307 308 307 306 307 306 307 311 312 311 313 311 308 311 316 313 312 316 315 314 314 311 312 312 309 308 308 309 311 313 313 313 312 311 313 314 315 318 320 318 315 311 307 308 308 305 305 306 304 306 307 307 307 307 307
303 305 306 304 305 307 309 308 308 312 313 311 312 313 309 308 307 307 307 306 305 305 307 308 305 305 307 307 309 310 307 306 306 307 309 309 307 307 305 306 309 311 312 312 309 306 310 314 313 311 313 312 312 315 316 316 311 308 308 307 308 311 310 310 311 310 312 313 311 315 318 315 314 315 314 313 314 311 306 305 305 306 306 307 307 307 307 307
305 307 307 307 305 305 305 305 305 309 310 309 310 310 308 309 308 307 307 305 304 304 304 305 305 306 308 308 310 312 309 306 307 309 312 312 310 308 305 306 307 308 311 309 306 308 310 310 312 314 314 312 311 311 312 311 308 306 308 308 308 310 310 311 311 310 313 314 311 314 315 310 310 313 313 314 315 314 310 305 304 306 307 307 307 307 307 308
305 306 307 307 306 305 306 305 304 305 306 306 308 308 307 309 310 309 307 305 305 305 305 305 305 306 308 308 309 309 308 309 309 310 310 309 310 309 304 304 305 306 307 305 304 310 312 309 310 312 312 310 310 310 308 307 307 307 309 309 310 311 310 310 310 310 312 310 309 315 315 310 311 312 313 314 314 312 309 304 304 307 307 307 307 307 308 308
304 305 304 304 304 304 306 306 304 305 305 305 308 308 307 309 310 309 308 305 304 305 305 306 306 306 306 306 307 307 308 309 308 308 308 306 309 311 307 305 304 303 304 305 305 309 311 309 307 307 310 310 309 307 306 306 307 308 309 310 311 310 309 308 310 313 312 308 309 314 315 312 313 314 315 313 309 306 305 304 305 307 307 307 307 307 307 307
302 303 303 303 303 303 304 305 304 305 307 307 309 308 306 307 307 305 305 305 306 306 305 306 306 305 306 307 309 309 309 308 306 307 307 305 306 309 308 306 304 302 303 306 306 305 307 311 309 305 307 310 309 308 306 306 307 307 308 310 310 310 309 308 311 313 310 309 309 310 311 312 311 313 313 308 303 302 304 306 307 307 307 307 307 307 307 306
301 302 302 302 304 304 305 304 303 306 308 307 307 307 304 305 304 303 303 303 305 306 305 306 306 305 306 310 312 310 310 310 307 306 306 305 306 307 307 306 306 304 304 306 306 304 305 309 309 306 306 308 310 310 307 306 307 306 307 309 308 308 308 306 307 309 308 308 308 306 307 309 307 305 304 302 302 304 305 306 307 307 306 307 306 307 306 305
300 301 300 302 305 305 305 302 301 306 308 306 306 307 306 306 303 302 303 303 302 304 304 305 305 304 305 309 308 305 305 307 307 305 305 304 305 306 306 304 304 304 306 306 305 304 305 307 308 307 306 307 308 308 307 306 306 304 304 307 307 307 309 308 307 308 308 308 308 305 305 308 307 301 300 302 303 304 305 306 307 306 306 307 306 305 304 303
299 299 300 302 303 303 303 302 301 305 305 303 303 304 304 306 302 300 303 304 301 301 302 303 303 303 305 306 304 301 300 301 302 303 303 303 303 303 303 303 302 302 305 306 304 305 307 306 307 307 305 305 306 306 307 306 305 306 307 307 306 306 308 308 307 308 307 307 307 306 306 309 309 305 305 308 305 304 306 306 305 305 306 306 305 303 302 301
Wind_Speed
10 10 9 7 6 7 8 9 10 11 11 12 11 11 10 10 8 7 6 5 5 5 3 3 4 5 6 7 8 9 10 10 10 14 15 8 5 8 10 11 11 11 9 7 7 4 2 3 3 5 5 3 1 1 1 3 4 2 2 3 1 3 3 4 6 4 3 4 7 11 13 0 2 5 12 12 15 20 15 11 10 6 3 10 15 21 27 23
9 9 8 7 6 7 8 9 10 10 11 11 11 11 10 9 8 7 5 4 3 3 3 3 4 5 6 7 8 10 10 11 12 14 12 7 7 8 10 13 13 12 9 6 4 2 2 2 4 4 4 3 1 2 1 2 6 3 3 2 3 5 4 6 7 4 3 6 10 13 11 2 4 3 10 8 9 15 12 9 9 10 11 15 20 25 26 24
8 8 7 6 7 8 9 9 9 10 10 11 10 10 10 9 8 6 5 3 1 2 3 3 4 5 6 6 8 9 10 11 10 8 6 6 7 8 11 14 14 12 9 6 4 3 3 3 4 3 3 3 2 1 1 2 5 3 3 1 5 6 5 8 10 10 11 11 11 12 8 4 5 2 6 7 7 8 7 9 9 12 17 21 25 27 25 24
8 8 7 7 8 8 9 9 9 10 10 10 10 10 9 9 8 6 4 2 1 2 3 3 4 5 5 6 7 8 10 8 4 3 4 3 2 5 11 15 14 12 9 6 4 4 3 3 3 2 3 2 2 0 1 3 4 2 3 4 6 3 2 11 12 12 14 12 11 10 4 5 5 3 10 14 9 2 6 17 18 19 25 28 30 28 26 25
8 8 8 8 9 9 9 10 10 10 10 10 10 9 9 8 7 6 4 2 2 2 3 3 4 5 5 6 7 6 7 4 3 4 3 3 2 5 9 14 14 11 9 7 5 4 3 4 3 2 3 2 1 1 2 5 4 1 4 7 8 3 2 12 11 9 11 11 10 7 0 5 4 5 17 17 8 4 11 21 22 23 27 30 32 29 27 26
8 9 9 10 10 10 10 10 10 10 10 10 9 9 8 8 7 6 5 3 3 3 3 3 4 5 5 5 5 4 3 2 4 5 2 2 2 6 9 12 12 11 10 8 5 4 3 4 3 3 3 1 1 2 3 4 4 2 5 6 10 9 6 14 13 9 11 12 10 6 2 6 7 6 16 13 3 4 10 17 19 22 26 28 32 32 30 29
9 9 10 10 11 11 11 11 11 11 10 10 9 8 7 7 7 6 5 4 3 3 3 3 4 4 4 4 3 3 4 3 5 5 2 1 2 6 8 10 11 11 10 8 6 4 4 5 4 3 3 1 1 4 3 3 5 4 4 5 10 11 11 16 17 15 16 14 14 12 7 6 10 6 12 12 5 3 6 13 18 24 29 30 33 32 31 30
9 9 10 11 12 12 12 12 12 12 11 11 10 9 7 6 6 6 5 4 4 3 3 3 3 3 3 3 4 5 5 3 6 6 4 2 4 6 8 10 11 10 10 8 6 6 5 4 3 2 2 0 1 3 3 3 3 4 5 6 7 9 13 18 20 20 16 14 16 12 7 6 11 8 10 12 8 6 5 12 20 27 32 32 34 33 31 29
8 9 10 11 12 13 13 12 12 13 13 13 12 10 8 6 5 5 5 5 4 3 3 3 3 3 2 3 5 5 1 2 6 6 4 1 3 5 9 10 10 10 10 9 8 8 6 3 2 0 1 2 2 3 3 1 2 5 7 7 7 12 17 18 19 17 11 11 11 7 5 3 8 6 7 11 8 5 7 15 23 29 33 34 34 32 31 29
7 8 9 10 12 13 13 12 12 13 14 14 14 12 9 6 5 4 5 4 4 4 3 3 3 3 3 4 4 2 1 2 6 5 4 3 3 4 6 7 8 10 10 11 11 9 5 3 1 2 3 3 2 4 3 2 2 4 6 9 11 16 17 13 12 10 6 7 8 7 3 1 7 4 4 9 9 9 14 19 25 30 34 35 34 32 30 29
6 7 8 9 10 12 13 13 13 13 14 14 15 14 11 7 5 5 5 4 3 3 3 3 4 4 4 5 3 0 0 2 5 5 7 7 7 7 7 7 8 9 10 10 9 5 1 1 3 5 3 3 4 4 4 3 5 8 7 9 11 12 10 7 7 8 3 3 8 8 3 2 3 2 3 7 12 15 19 24 27 32 35 35 34 32 30 28
5 6 7 8 9 10 12 12 13 13 14 15 15 14 13 10 6 5 5 4 3 3 3 3 3 4 5 6 5 2 1 1 3 4 7 8 8 8 8 9 9 8 7 5 3 1 3 4 7 7 5 5 5 2 3 7 9 8 5 4 9 8 6 5 4 4 1 1 4 6 1 4 2 2 1 10 17 18 21 25 28 32 33 33 34 32 30 28
5 5 6 7 7 9 10 11 12 12 13 14 15 14 12 10 8 7 6 5 3 3 3 3 4 5 6 6 4 2 2 1 2 3 5 6 6 6 6 6 5 4 2 0 1 3 5 7 8 9 8 6 3 2 5 9 7 6 3 2 6 7 6 7 6 3 1 1 2 3 2 5 7 5 4 16 21 21 21 23 26 30 30 32 34 33 31 29
5 5 6 6 6 7 8 9 10 11 12 14 15 15 12 9 9 8 6 5 4 3 3 4 5 6 6 4 1 2 4 3 2 2 3 3 4 3 3 3 3 1 2 4 5 7 7 7 8 8 8 6 6 4 6 6 4 4 2 2 4 2 4 8 5 5 2 2 5 4 2 6 8 6 9 19 22 24 23 22 24 27 29 32 35 34 32 31
6 6 6 5 5 6 7 9 10 10 12 13 15 15 12 8 8 8 6 5 4 3 4 5 5 7 8 5 2 5 6 4 3 1 1 2 2 2 2 2 1 3 4 6 7 9 7 6 6 5 6 6 4 3 4 4 4 3 2 2 4 2 4 8 4 5 2 3 6 5 1 6 6 6 12 20 22 25 24 24 26 27 30 33 35 35 34 32
7 7 6 6 5 5 6 8 9 9 11 13 14 13 11 8 7 6 6 5 5 4 4 5 5 6 6 3 1 3 4 5 4 2 3 2 2 2 1 1 3 4 6 8 9 8 4 3 3 3 3 2 1 3 4 4 4 4 3 0 3 4 3 5 5 7 4 3 4 3 2 5 4 4 10 19 21 24 22 23 25 27 30 34 36 37 35 34
7 8 7 7 6 6 6 7 8 9 9 12 13 11 10 9 6 4 5 6 6 5 5 5 6 6 5 1 2 4 7 7 5 4 4 2 2 2 2 3 3 4 8 8 6 3 2 1 2 2 2 3 3 4 3 3 3 4 3 3 2 1 2 2 4 6 6 3 3 1 2 6 5 6 6 14 16 19 19 21 25 27 30 33 35 35 35 36
7 7 7 7 7 7 6 5 6 7 9 11 12 10 8 10 7 3 4 6 7 7 6 4 3 4 3 2 3 7 9 8 5 4 4 3 3 2 3 5 5 7 8 4 2 2 2 1 1 1 4 4 3 5 2 3 2 2 1 2 2 1 1 2 3 2 6 4 3 3 4 7 7 6 3 9 12 16 18 20 22 24 26 28 29 31 33 35
7 7 7 7 7 6 5 5 4 5 8 10 11 8 7 12 8 2 5 10 9 5 3 3 2 2 4 5 7 8 8 6 4 3 4 4 4 4 5 6 6 7 6 3 2 4 2 1 3 2 3 4 2 4 5 7 5 4 3 4 2 1 2 5 5 4 3 3 1 2 4 6 6 4 2 8 12 14 15 14 15 17 20 23 26 29 32 35
7 6 6 6 6 5 4 3 3 5 8 9 10 7 6 11 6 2 11 16 10 6 6 7 8 10 11 9 8 8 8 4 2 3 3 4 5 4 5 6 5 4 4 0 2 3 3 3 1 3 5 6 6 5 5 4 4 4 4 5 3 3 2 5 4 5 2 2 1 2 5 6 6 5 4 8 12 11 12 10 12 15 17 21 24 28 31 33
7 6 6 5 4 4 2 2 3 5 8 8 9 7 6 9 5 5 14 15 11 10 10 8 9 13 12 9 8 10 9 4 3 3 2 4 6 4 4 3 0 2 3 1 1 2 4 2 3 7 8 7 5 5 5 3 4 3 5 4 1 2 2 5 3 4 3 1 3 2 2 6 6 5 4 5 8 10 15 14 14 17 18 20 24 27 30 31
6 6 5 4 2 1 1 2 3 5 8 7 8 9 8 9 6 7 10 10 14 15 10 7 8 12 12 9 10 11 7 4 4 5 5 5 7 5 4 2 4 2 2 1 1 4 4 2 8 8 6 3 3 5 5 4 5 3 3 3 1 2 3 5 3 5 5 1 4 4 4 6 7 5 4 5 6 10 20 23 22 24 24 24 26 28 29 31
5 5 5 3 0 1 1 2 3 4 5 5 7 9 9 9 7 10 9 7 13 13 8 7 8 10 12 9 8 7 5 4 5 5 6 7 8 7 5 4 4 2 1 2 3 1 2 5 7 3 6 6 3 3 6 4 3 3 3 2 2 2 1 3 4 6 4 2 1 2 3 5 6 6 4 4 6 7 15 22 24 25 26 29 31 32 33 35
4 4 3 1 1 1 0 2 3 3 2 3 5 6 6 8 8 10 9 4 6 7 5 4 6 9 10 7 5 4 4 5 6 4 4 9 9 6 5 4 4 1 1 3 7 4 5 8 5 5 5 5 2 2 5 5 1 2 3 4 3 2 3 4 4 5 4 3 3 5 4 5 4 5 5 1 1 2 5 11 17 19 23 26 27 30 35 38
4 3 3 2 3 2 1 1 2 3 1 1 3 4 6 9 11 10 6 2 3 5 3 2 4 6 6 5 5 5 3 5 8 7 6 9 10 5 2 3 3 1 4 4 6 3 6 6 3 3 3 3 3 2 3 6 2 4 3 7 7 5 4 3 2 5 5 4 4 4 2 5 5 4 5 4 4 3 1 4 10 13 15 19 24 28 33 37
3 3 3 4 5 4 2 2 2 2 2 2 4 7 8 11 11 7 2 3 3 4 3 1 1 2 3 4 4 4 2 4 6 9 9 8 10 6 2 1 2 0 4 5 3 2 4 2 3 3 4 5 3 3 5 6 5 2 5 7 7 6 5 3 2 3 2 2 3 3 2 4 6 4 5 4 6 7 5 4 7 8 9 14 21 27 32 37
3 3 3 5 6 6 5 4 4 4 4 5 8 10 11 11 8 4 1 4 2 3 2 1 1 1 2 3 2 4 0 4 4 5 8 9 9 7 4 2 1 0 3 3 1 2 3 2 5 5 5 6 3 3 5 7 7 2 5 6 8 6 5 5 5 4 2 3 3 4 3 2 4 5 5 4 5 8 7 7 7 5 4 7 13 20 28 35
4 3 3 4 6 7 7 6 6 5 6 8 11 12 11 8 4 1 3 4 2 3 2 2 2 2 3 2 5 7 2 4 3 1 4 8 8 5 3 4 4 3 2 4 3 5 2 2 3 2 5 3 3 4 7 9 5 5 4 7 7 5 5 5 6 3 1 1 3 5 2 1 4 6 5 5 4 7 7 7 8 9 13 12 13 15 21 28
4 4 3 3 3 4 5 6 6 6 8 11 12 11 8 4 2 2 5 2 3 2 2 2 2 3 4 1 5 7 4 2 1 0 2 6 9 4 1 3 6 4 1 4 4 6 2 4 4 3 3 3 6 4 7 9 3 4 6 7 5 6 5 4 5 3 3 3 4 6 1 2 4 5 5 3 2 5 7 6 6 10 16 15 13 12 14 21
5 4 3 2 2 2 3 5 6 7 10 11 11 9 6 2 0 4 3 1 1 2 2 2 3 3 4 3 2 3 2 3 2 1 2 5 7 4 4 1 4 5 1 3 1 6 4 2 2 2 3 5 4 1 3 5 3 3 6 6 6 6 5 4 3 4 4 1 6 7 2 2 3 5 4 3 2 3 5 5 5 9 14 14 10 9 7 15
6 5 3 2 2 3 4 5 7 8 9 9 8 6 2 0 3 5 1 2 1 3 4 2 3 4 4 2 2 4 2 3 5 2 1 1 1 2 4 2 2 4 3 5 3 5 7 3 2 3 4 3 5 4 2 2 3 4 4 5 4 3 4 4 4 3 3 3 6 5 1 4 2 5 3 4 5 5 5 5 5 7 12 13 8 9 7 5
5 3 3 3 3 4 6 5 5 6 6 7 7 2 2 1 2 2 2 3 1 2 2 1 3 4 4 3 3 4 3 3 6 4 0 0 0 1 1 3 2 2 3 3 2 6 5 4 4 5 3 2 5 3 3 5 5 5 4 5 3 2 3 2 3 0 2 5 4 3 1 3 4 6 4 5 7 7 3 2 3 5 9 12 9 10 11 6
3 2 3 4 4 5 6 8 9 7 6 7 5 1 4 4 1 3 2 2 1 2 1 1 2 3 3 4 4 5 3 2 4 4 1 1 1 2 3 1 4 2 1 3 1 4 4 5 5 3 2 0 4 4 1 2 2 3 4 4 3 2 2 2 3 1 3 4 2 2 2 1 3 4 3 4 6 6 4 4 2 3 7 12 14 13 10 7
1 0 1 2 4 5 6 9 11 10 9 8 2 2 4 1 2 2 1 2 2 2 2 1 3 4 4 4 3 4 3 2 4 5 3 3 3 3 4 3 2 3 2 1 1 0 0 4 4 1 2 3 1 5 5 4 3 2 4 5 4 4 3 3 4 2 3 2 2 2 1 2 2 2 4 4 5 5 5 4 3 5 8 14 21 21 15 8
1 2 4 3 4 6 7 9 11 11 10 7 3 4 2 3 3 1 2 3 1 2 3 2 3 4 4 3 4 4 3 2 4 5 3 3 2 1 1 2 2 3 4 1 2 1 1 4 6 4 3 2 1 2 4 6 3 1 3 5 2 4 4 1 3 4 3 1 1 1 2 3 3 3 4 4 5 5 4 2 4 8 13 21 26 26 23 18
2 4 4 3 3 6 8 9 11 11 8 4 5 4 2 3 2 2 2 2 0 0 2 4 4 4 3 4 3 4 2 1 4 4 3 2 1 1 1 2 2 2 5 3 2 1 1 4 6 4 3 3 2 1 2 3 1 1 2 3 3 4 7 4 1 1 3 1 3 1 2 3 1 1 3 5 5 6 5 4 4 9 17 24 25 24 27 25
3 3 2 0 2 5 7 9 10 9 6 4 5 1 3 2 2 3 1 3 1 2 4 2 2 1 1 2 2 4 3 2 3 3 2 2 1 3 4 3 1 2 2 3 3 2 2 3 6 1 1 4 6 3 5 4 3 4 2 4 2 2 4 4 1 3 4 2 4 1 2 2 1 1 1 1 3 5 5 5 5 10 16 21 20 21 25 26
5 2 1 2 1 3 6 9 10 7 4 4 2 1 2 1 2 1 4 4 1 3 4 1 1 1 2 1 3 4 2 2 3 3 2 1 1 3 4 3 3 6 3 3 2 0 3 2 7 2 2 5 7 4 3 5 4 4 4 3 2 2 0 1 2 1 0 2 3 4 2 3 3 4 4 6 6 3 3 5 5 8 12 16 17 20 24 25
7 2 2 1 1 3 6 10 8 4 4 3 1 1 1 1 2 4 7 5 1 3 2 3 1 1 2 3 2 3 2 0 0 1 1 0 1 3 4 2 4 8 7 3 3 1 2 1 5 4 2 4 5 3 1 3 5 4 3 2 2 2 3 1 2 2 2 2 2 3 3 2 4 5 6 8 7 4 1 4 5 6 10 14 16 20 23 24
7 2 2 2 2 4 7 10 5 2 3 1 3 2 1 2 3 6 9 7 1 1 0 3 2 0 2 3 2 1 1 1 3 2 1 1 1 2 5 3 3 7 7 4 3 1 3 2 3 5 5 2 1 1 3 3 0 2 2 2 1 2 2 1 1 1 2 3 2 1 2 5 5 4 5 7 6 6 3 1 2 6 10 13 15 18 21 22
7 3 2 4 4 5 7 6 3 2 3 1 2 1 2 2 3 6 9 9 4 1 1 2 4 2 2 2 2 2 1 1 2 1 2 1 0 0 3 5 4 5 6 5 4 2 1 1 2 3 4 2 4 4 3 4 3 2 2 2 2 3 3 2 1 2 1 2 3 3 2 6 4 2 4 5 5 4 3 1 2 6 10 12 13 16 18 19
7 3 4 6 7 6 5 2 2 2 3 2 1 2 4 4 3 4 7 8 6 1 0 1 3 2 2 2 2 2 2 1 1 1 2 2 2 2 4 9 6 3 2 2 2 1 2 3 2 3 4 4 7 5 1 2 3 4 2 1 3 3 4 4 3 3 0 1 2 3 1 5 5 3 3 3 3 3 3 1 1 6 9 10 13 14 15 15
10 8 8 8 8 5 3 1 2 3 0 1 3 3 3 3 1 3 4 5 4 2 2 1 1 1 1 1 1 2 2 1 3 2 2 2 2 1 6 12 7 2 3 2 2 1 2 2 2 3 4 4 6 5 4 3 4 4 1 2 3 2 3 4 4 3 2 2 2 2 2 5 5 3 1 0 3 4 2 1 2 5 8 10 12 13 13 12
13 12 8 7 8 6 1 1 1 1 2 3 4 3 3 2 1 1 2 2 3 1 1 1 0 0 0 1 2 2 1 0 1 0 1 2 1 3 10 15 10 4 3 1 2 0 1 0 2 2 4 6 6 5 5 5 3 2 1 1 1 3 5 3 2 3 1 3 4 4 4 5 4 4 4 3 5 5 1 2 2 4 7 9 10 11 12 12
11 7 4 8 9 3 4 3 2 2 1 3 3 4 3 2 2 3 1 1 3 1 1 1 1 1 2 2 3 3 2 1 1 1 2 1 1 3 10 13 11 7 4 3 1 2 1 1 2 2 2 4 3 2 3 2 1 0 2 2 1 4 5 2 2 4 1 3 3 4 3 4 5 5 6 5 4 4 3 2 2 3 6 8 9 10 11 11
6 2 4 8 11 11 11 8 5 3 1 2 2 3 1 1 4 6 2 1 3 3 3 2 2 2 4 4 3 3 3 2 1 1 2 2 2 3 6 7 10 9 7 8 7 2 3 0 3 5 5 6 5 6 5 2 1 2 1 3 3 1 3 4 4 3 4 3 2 5 3 2 5 6 6 6 3 2 3 3 2 3 6 7 8 9 10 10
3 1 2 4 7 8 9 10 10 5 1 1 0 2 2 2 4 5 2 2 3 4 4 3 3 2 1 2 3 0 2 3 3 2 1 2 3 3 5 2 6 10 8 8 9 4 4 2 2 4 5 6 6 7 4 2 3 4 3 4 6 3 3 5 4 4 4 3 4 7 6 4 7 7 7 7 3 1 4 5 1 4 6 6 6 8 8 8
4 2 3 3 2 1 3 7 9 5 2 1 1 1 3 3 3 2 2 3 4 5 3 2 5 3 1 2 3 1 1 2 2 1 0 1 2 4 5 2 3 10 9 6 7 4 4 2 3 3 3 5 4 5 3 1 3 3 4 6 7 5 5 6 7 6 6 5 7 7 8 7 7 6 8 8 4 2 4 3 2 6 5 5 5 7 7 7
5 3 3 5 2 1 1 6 6 3 3 3 1 2 3 3 3 3 3 3 4 5 3 1 2 5 3 1 4 3 1 2 1 2 2 0 2 2 3 2 1 7 9 4 4 3 3 2 2 3 3 5 4 5 3 3 2 3 4 6 6 6 8 8 7 6 7 8 9 5 7 9 7 7 8 7 5 3 3 2 5 5 4 4 5 6 6 8
7 4 5 5 3 2 4 5 3 2 2 4 2 2 2 2 3 4 3 1 2 4 3 3 2 3 3 3 4 2 4 5 3 1 4 2 2 1 1 2 2 4 7 3 1 2 2 2 1 2 1 5 5 5 3 5 4 5 6 6 5 6 7 6 5 4 4 7 8 5 6 9 7 7 9 7 3 4 6 7 6 4 4 4 6 6 7 8
7 6 7 5 2 4 5 4 3 3 2 4 2 2 2 1 2 4 3 1 4 3 3 1 1 0 3 5 4 2 4 2 4 4 6 5 3 3 3 2 3 1 4 0 1 1 2 1 1 3 2 5 3 4 7 4 3 6 8 6 7 7 6 5 5 5 6 6 7 5 5 7 7 6 7 6 3 7 9 7 4 4 4 4 5 6 8 10
8 6 6 3 1 4 4 3 3 3 1 2 2 2 3 4 5 4 1 1 9 10 6 2 2 2 3 4 4 7 14 11 10 9 7 6 6 6 6 5 4 2 1 1 1 1 3 2 1 2 2 4 3 5 5 3 5 7 7 8 12 11 8 6 4 4 7 6 5 6 6 6 5 5 5 4 3 4 4 3 2 1 2 4 4 7 9 12
Wind_Direction
341 342 345 351 352 348 354 357 357 355 350 349 347 343 338 335 330 320 308 302 297 285 266 255 257 259 269 278 283 286 288 287 282 276 276 289 293 253 229 215 209 205 197 193 202 214 225 216 173 163 171 164 180 155 183 218 183 158 105 103 205 198 195 196 196 205 207 284 286 317 338 210 112 82 123 125 130 127 132 133 134 165 181 183 172 158 158 157
343 345 347 355 358 356 2 2 359 355 352 349 349 347 345 343 338 334 326 319 316 291 256 254 259 263 276 284 293 298 300 299 291 283 282 284 270 240 214 209 206 200 192 187 200 187 158 167 167 167 167 154 114 123 122 185 178 162 106 125 220 204 212 212 212 238 245 282 293 309 326 144 138 108 130 124 122 123 118 108 115 122 132 159 160 158 161 161
352 356 2 9 10 9 10 7 1 356 354 351 351 353 351 347 344 345 343 345 333 266 249 260 263 271 283 291 302 306 312 312 303 297 301 296 267 230 206 203 202 200 191 188 190 146 129 134 156 163 149 133 98 122 84 151 189 198 127 180 244 216 233 250 244 259 272 280 290 305 314 144 137 143 143 128 117 118 131 138 135 137 145 157 159 161 164 164
7 13 20 24 22 21 18 12 4 359 356 353 354 357 357 353 351 350 350 356 308 247 245 260 266 281 290 298 309 313 325 330 340 354 345 346 277 205 196 197 200 200 189 193 190 143 125 127 148 142 112 95 79 148 247 190 192 182 153 202 235 188 239 266 263 275 291 296 283 290 313 128 128 153 150 137 120 61 203 177 172 168 160 159 161 164 167 168
26 32 35 36 32 28 21 14 6 0 357 355 356 357 -0 360 358 353 348 337 293 263 259 268 276 290 295 306 314 321 346 14 34 9 8 33 93 160 183 195 199 196 188 191 184 140 130 136 138 97 75 51 65 95 239 207 181 166 221 228 237 201 242 276 284 293 302 316 301 291 0 139 126 149 156 151 146 194 211 193 183 177 170 166 166 168 172 174
43 45 44 40 33 27 20 14 6 1 358 356 356 355 1 4 2 356 345 332 305 289 279 282 286 295 303 314 326 329 351 32 359 359 22 22 101 156 181 197 197 195 197 195 177 138 127 134 131 92 70 32 150 194 246 228 183 210 269 254 254 242 239 278 284 281 288 302 304 297 266 153 122 144 172 178 189 191 212 202 187 179 177 172 169 171 175 178
48 46 43 38 31 25 19 15 10 5 -0 358 357 356 1 5 8 2 350 344 325 306 296 299 294 300 315 321 347 329 296 327 355 355 321 299 177 182 190 200 201 204 209 199 171 139 133 139 138 105 81 17 224 215 265 264 193 198 270 272 271 260 248 275 281 281 282 281 284 291 292 179 149 159 187 203 242 277 249 204 187 177 173 171 171 174 177 178
46 42 39 35 30 26 21 21 18 14 9 5 1 359 1 2 6 5 358 354 338 325 314 309 300 308 328 329 345 327 298 327 345 335 322 257 197 208 203 205 207 211 214 196 160 142 151 154 155 111 103 309 234 231 273 290 221 191 235 265 280 271 263 279 287 284 281 278 281 283 285 208 178 169 181 207 243 278 253 195 184 175 171 173 175 176 176 177
40 37 35 32 30 27 25 26 23 21 19 15 9 4 3 2 4 8 5 357 343 342 331 317 312 314 325 327 340 339 331 10 339 333 338 223 197 212 213 216 211 208 203 180 155 154 159 155 162 132 246 266 266 274 286 283 257 203 222 267 276 276 281 286 285 281 279 281 271 250 285 230 164 153 183 214 239 244 203 184 181 175 173 177 178 177 177 178
31 31 30 29 29 28 28 29 27 25 23 21 19 13 11 8 5 6 5 -0 346 348 347 328 320 315 316 323 343 19 95 12 343 356 46 102 123 157 188 197 194 191 180 163 154 154 139 126 131 345 295 278 283 275 255 166 255 250 256 277 272 278 285 280 278 286 293 273 238 201 246 161 140 143 211 219 217 199 179 173 177 177 177 179 179 178 179 180
19 23 24 24 25 27 29 30 29 27 26 24 22 21 22 20 15 9 6 4 357 357 348 333 328 318 315 310 303 106 149 341 354 34 82 94 95 104 116 120 131 140 143 146 150 155 128 229 306 331 303 302 316 274 228 230 295 297 299 293 291 299 292 268 276 293 301 246 226 192 167 59 121 168 239 199 185 184 174 170 175 178 179 179 179 178 181 183
-0 7 13 17 17 21 26 28 28 28 26 24 22 21 22 23 21 15 12 10 12 9 346 335 332 321 316 297 272 237 212 306 10 61 96 100 100 98 97 97 96 97 110 132 150 243 298 291 304 306 289 302 315 302 283 309 306 298 321 308 308 342 354 331 327 306 151 194 240 180 125 346 251 240 208 166 168 175 173 169 174 178 180 179 179 181 184 185
335 341 354 4 9 13 16 21 22 21 21 20 18 15 15 20 20 16 17 21 22 13 355 339 325 320 318 304 280 221 218 267 20 73 107 117 117 110 105 102 98 103 113 150 304 310 302 300 302 292 289 286 276 312 312 313 308 300 354 58 321 357 5 347 1 359 100 316 326 150 244 288 261 274 154 159 167 168 165 166 173 178 180 180 179 183 187 188
323 321 328 345 1 5 4 10 13 12 13 13 12 10 9 13 19 19 19 26 24 10 356 340 338 335 315 298 226 240 270 293 354 80 129 145 134 135 137 119 91 79 339 336 323 313 306 302 304 292 284 264 254 295 317 331 357 323 343 57 3 35 306 320 343 350 4 339 8 88 242 265 270 283 160 163 173 169 163 166 174 180 182 182 183 187 190 191
315 313 315 326 343 356 356 357 0 4 7 8 9 7 5 9 18 21 22 25 19 1 353 337 345 345 313 291 243 264 279 297 321 41 187 193 155 158 140 114 31 1 338 338 327 314 307 299 294 286 283 268 269 324 341 348 11 11 24 332 348 61 302 314 354 5 354 325 6 78 248 274 277 263 174 169 177 173 167 170 178 184 185 185 186 190 193 195
301 303 304 307 317 336 344 345 348 354 2 5 4 2 3 6 12 23 25 20 9 357 351 331 335 343 315 309 18 312 323 329 319 282 241 224 176 164 124 15 356 356 337 333 326 310 293 293 288 285 314 311 94 66 38 6 354 358 53 67 321 33 354 324 1 2 8 327 341 91 216 272 313 298 187 174 179 177 170 174 181 186 187 188 190 193 197 198
294 293 294 297 302 312 323 334 338 343 357 3 360 357 2 4 4 16 18 15 10 355 340 320 317 318 293 276 33 -0 358 346 314 261 251 241 198 198 247 307 330 330 330 334 331 314 204 213 256 259 15 46 76 75 49 -0 338 323 21 67 292 331 31 336 330 349 20 15 296 357 238 247 309 327 208 182 183 180 175 181 186 188 190 192 194 197 200 200
300 294 291 292 295 300 309 324 330 341 354 -0 359 354 357 3 353 340 -0 358 347 338 332 321 322 320 276 243 316 336 345 337 308 258 248 242 217 213 250 288 306 319 341 3 26 57 164 203 66 53 16 11 30 77 108 225 189 224 263 72 342 312 316 301 273 317 19 22 273 317 281 263 308 332 222 193 192 191 191 189 189 191 193 196 199 202 203 204
312 304 298 293 293 299 306 320 336 351 357 1 3 358 359 0 350 331 349 332 315 316 323 300 293 284 266 282 304 325 335 332 311 256 245 245 225 225 242 271 296 324 1 25 10 36 86 50 49 46 337 306 264 134 175 209 169 161 181 143 126 119 272 267 254 275 357 55 316 284 254 275 307 308 232 202 203 208 209 200 194 195 197 201 204 206 208 209
317 315 311 303 298 303 310 334 359 9 8 11 9 9 8 2 2 345 335 322 304 296 293 283 279 275 280 293 307 327 332 318 277 234 252 254 232 236 244 258 284 327 2 347 294 4 61 57 60 213 231 240 233 193 181 186 144 126 120 121 156 164 283 278 268 291 320 107 309 240 235 271 270 254 248 206 203 218 226 216 205 202 203 207 209 211 213 213
320 321 318 312 306 315 335 14 27 23 20 23 22 31 29 13 13 330 330 324 316 315 302 290 279 270 274 287 298 319 327 304 236 204 229 248 225 219 232 233 78 346 312 230 240 339 55 58 241 225 222 226 220 183 152 132 115 108 131 132 180 183 247 263 253 307 345 99 269 321 312 285 268 260 269 194 185 217 224 218 213 211 211 214 215 216 216 217
323 325 322 316 318 355 50 47 35 23 25 38 46 52 43 25 11 337 331 313 311 316 306 289 274 264 269 280 291 302 305 291 267 237 228 229 214 207 200 129 112 186 298 15 -0 350 21 289 255 242 209 147 105 135 132 123 108 88 130 133 285 254 275 289 300 330 359 47 273 340 11 293 279 277 260 197 187 223 225 222 221 217 212 213 217 218 218 219
327 328 324 315 11 98 85 48 22 14 37 60 59 56 38 12 356 341 332 295 298 311 304 281 268 268 275 285 292 284 249 241 269 258 236 219 207 205 186 128 118 165 13 70 138 32 333 249 240 209 148 129 84 103 114 109 100 88 122 137 267 270 321 292 302 325 350 46 256 32 17 299 300 320 296 196 188 223 226 224 227 224 219 219 219 218 217 218
328 332 317 285 177 188 161 31 9 15 56 76 54 46 13 346 339 331 324 294 290 309 313 278 260 269 275 285 294 275 238 237 248 254 227 207 192 191 199 154 117 148 229 156 141 160 251 242 201 130 127 150 137 103 119 131 246 297 161 166 208 229 201 218 279 327 347 12 41 57 11 315 329 336 308 288 157 194 209 224 230 229 227 225 223 221 220 220
327 328 301 241 218 231 247 325 351 25 58 147 16 354 332 326 324 319 319 341 302 302 326 300 266 275 274 279 271 257 263 255 248 252 243 214 192 177 193 161 130 228 220 154 124 173 259 258 183 125 84 115 145 205 184 158 191 305 241 200 189 177 188 211 346 20 30 352 345 35 -0 291 322 315 269 310 348 319 296 236 234 235 233 227 225 225 224 224
330 322 291 248 241 252 260 273 299 331 313 277 309 322 318 318 318 309 315 48 349 300 335 336 267 300 273 268 255 230 275 286 260 250 241 227 210 188 151 145 94 330 187 152 123 197 253 309 67 105 104 99 116 252 235 165 134 301 246 199 164 133 130 134 101 83 86 273 303 47 148 254 317 316 270 313 335 309 302 280 251 243 237 233 235 233 229 227
339 322 297 265 254 256 265 282 287 286 298 301 306 316 318 320 324 303 356 42 354 303 344 250 215 339 285 283 221 163 145 311 300 255 228 219 216 198 198 240 49 165 166 126 9 264 229 314 26 64 88 87 99 264 234 153 121 231 231 146 131 127 142 158 140 132 191 243 321 16 111 201 297 278 280 334 338 318 317 306 300 306 295 267 257 248 238 234
349 330 307 284 268 260 265 275 280 283 298 305 309 316 320 323 323 321 74 68 285 304 3 255 257 282 277 275 215 202 255 326 349 306 223 205 207 194 212 223 175 183 156 115 245 269 223 247 301 82 78 73 206 221 192 154 142 239 194 120 127 138 145 146 125 122 18 44 309 322 46 168 274 275 306 358 353 313 309 300 306 339 342 323 301 275 250 241
351 340 322 307 291 275 272 277 281 287 294 302 310 314 318 313 294 53 77 95 270 312 9 311 307 281 282 302 222 230 263 320 14 113 155 171 193 171 96 214 160 146 97 110 206 255 245 232 240 141 110 229 230 218 178 161 188 219 132 92 73 73 80 89 101 108 46 58 244 271 278 193 268 287 306 341 351 283 287 293 300 337 339 327 320 305 260 241
345 347 341 328 323 310 304 296 290 292 295 303 312 315 316 289 80 64 64 228 268 307 312 313 309 312 331 3 314 294 271 267 296 232 156 154 185 163 102 136 116 114 15 21 222 256 290 288 234 165 195 209 175 136 168 148 131 135 96 63 52 42 40 49 60 87 70 338 253 255 230 176 269 283 264 248 264 276 281 304 318 335 336 326 332 340 284 241
340 353 6 355 331 316 316 301 287 292 300 309 317 317 308 263 74 83 145 241 274 318 341 331 301 351 19 22 339 350 347 307 337 353 204 131 161 139 102 98 53 64 10 353 325 304 332 334 249 260 255 183 105 74 51 59 78 103 77 64 70 2 15 32 356 47 92 258 265 269 218 133 209 266 275 280 302 298 264 269 298 317 329 330 348 17 7 266
346 18 59 49 41 20 5 350 326 316 314 324 328 314 144 72 20 119 250 306 304 295 347 302 300 5 15 17 12 336 336 343 350 13 133 53 66 226 177 181 185 25 341 299 319 339 324 263 270 307 292 158 114 90 17 9 36 76 78 75 80 341 12 13 303 339 191 244 257 268 239 142 221 249 272 304 314 308 279 243 282 301 334 353 21 39 28 12
7 91 89 48 31 20 13 11 6 -0 347 341 336 99 96 74 245 216 271 335 248 253 316 290 327 20 28 30 9 325 349 13 344 6 23 21 23 282 306 143 146 115 284 237 325 355 322 302 326 338 301 234 129 144 197 325 68 119 137 122 121 113 71 295 270 267 255 263 276 269 264 277 276 266 255 283 305 324 21 51 353 340 3 18 44 60 47 28
13 187 301 -0 7 356 355 1 360 0 357 351 -0 94 73 86 221 210 263 265 251 305 356 18 348 13 45 50 340 334 22 353 343 16 7 16 33 324 334 1 72 105 118 163 215 139 291 303 304 232 278 329 113 164 168 148 135 177 162 132 143 157 152 232 228 199 242 266 318 305 255 186 203 258 264 281 320 352 36 48 40 46 44 45 55 65 66 56
11 318 304 318 348 348 352 351 347 353 355 352 44 81 102 218 246 202 231 257 285 324 328 8 50 48 21 352 325 1 59 309 345 29 17 19 40 294 321 327 327 95 117 149 239 174 132 260 260 267 288 342 44 187 143 110 95 255 145 113 152 182 154 177 190 170 177 180 290 258 231 219 203 265 298 340 351 351 6 15 58 61 62 62 58 59 63 62
347 340 328 306 315 340 353 347 344 354 353 6 60 74 180 211 228 176 209 286 329 0 338 357 47 68 349 325 328 348 31 13 4 29 4 4 32 283 271 276 298 117 135 161 213 180 77 275 282 311 335 7 1 242 99 94 172 184 132 161 215 168 125 117 202 44 77 154 257 240 234 281 341 333 339 11 343 321 332 343 39 58 63 65 60 58 61 62
332 336 356 288 320 342 348 347 351 356 358 53 82 151 221 210 193 187 290 315 276 92 76 31 5 71 318 321 311 315 352 24 12 22 341 338 11 324 320 310 336 70 151 185 216 196 146 268 295 345 98 345 351 32 44 41 121 127 172 210 204 102 92 109 161 9 43 201 268 297 202 237 121 204 279 -0 286 290 311 326 17 50 58 63 62 63 67 66
346 325 168 138 31 344 349 354 354 355 16 65 78 245 222 185 212 247 339 321 281 65 81 131 283 131 173 239 276 285 338 10 357 14 340 327 22 356 352 332 350 9 14 146 165 13 119 261 297 308 191 312 349 27 7 358 55 114 170 179 115 123 168 58 131 140 180 219 284 310 272 228 201 214 199 185 210 244 321 344 15 39 48 56 60 66 71 71
341 303 191 162 339 323 347 352 345 355 42 67 107 253 221 238 288 356 3 354 83 85 89 210 231 47 175 177 220 272 338 49 140 41 349 273 53 27 24 341 315 349 2 110 136 332 79 125 283 294 281 305 358 31 251 308 357 30 55 35 33 133 160 160 137 161 188 203 253 303 314 265 226 225 191 180 200 215 337 15 22 27 41 54 59 65 71 73
338 330 199 225 284 289 323 340 345 53 57 101 197 212 249 273 319 351 8 10 17 120 160 211 180 351 243 206 212 251 28 142 155 128 236 222 20 11 19 8 314 331 348 54 93 33 51 89 250 292 326 330 314 260 192 191 256 12 20 352 350 81 104 101 89 116 139 161 192 213 284 266 248 232 189 174 191 210 196 109 40 31 47 59 64 70 73 73
347 349 247 254 272 288 316 343 21 74 78 132 188 244 304 319 324 333 359 13 9 218 183 174 166 177 200 209 238 212 115 94 145 148 215 226 43 53 4 355 308 303 348 32 40 18 40 118 191 285 334 305 244 246 189 170 166 153 178 201 172 130 101 80 333 318 74 136 177 163 233 267 260 233 209 187 192 215 212 167 75 49 55 66 71 74 73 71
353 344 313 294 275 283 314 355 38 47 119 135 290 275 293 315 327 329 348 8 9 350 22 108 151 168 176 190 217 175 138 147 180 170 195 163 118 166 329 345 331 295 29 39 333 320 126 104 107 266 271 244 254 273 81 144 134 118 124 130 134 132 120 135 207 254 280 134 165 139 197 270 264 245 228 208 218 252 279 273 67 60 65 77 81 79 74 71
341 322 318 307 281 285 334 351 357 10 133 300 319 272 266 286 320 345 348 4 5 353 357 7 162 174 196 189 166 159 169 205 187 182 182 146 128 243 344 5 13 30 57 37 310 13 89 81 54 297 293 303 301 325 24 42 86 96 37 68 117 145 139 155 176 177 190 195 153 140 243 266 277 284 265 249 301 302 292 193 88 74 87 92 87 83 78 72
333 317 317 330 304 283 261 197 240 348 305 329 352 336 303 271 207 -0 340 329 330 322 16 352 227 172 329 78 91 138 187 187 200 236 106 132 176 334 7 24 40 58 58 58 244 325 355 275 92 12 330 334 337 348 354 351 44 110 291 325 102 107 97 101 100 81 159 213 165 167 233 254 273 314 343 347 329 322 313 133 94 82 100 101 89 83 79 72
336 316 328 3 352 4 96 102 141 150 326 350 353 330 320 294 324 339 295 297 341 75 124 318 304 57 33 41 47 37 47 70 301 337 54 52 278 338 7 24 41 46 45 52 73 172 177 201 146 132 241 249 275 278 267 287 313 0 314 296 271 105 104 109 85 90 185 242 174 166 217 272 286 317 332 320 328 345 348 16 56 93 103 101 91 80 75 71
356 343 338 5 24 58 74 59 57 96 74 28 347 316 345 325 322 332 329 53 33 62 74 8 347 43 37 41 48 19 14 18 2 61 65 342 277 308 341 15 41 28 23 35 30 89 130 87 180 162 187 204 206 226 226 185 214 269 286 261 256 137 108 106 103 132 191 194 205 210 201 278 281 283 292 291 320 358 295 311 4 106 106 100 91 79 74 72
27 36 347 359 17 46 62 44 33 30 29 85 241 304 2 329 311 333 7 48 45 54 59 24 19 51 77 73 90 66 338 358 13 72 86 304 255 294 325 23 48 21 22 29 15 47 101 354 243 167 200 217 208 229 237 151 212 227 198 228 250 247 114 121 160 202 169 136 261 245 196 203 250 249 254 267 291 268 255 285 335 116 109 99 94 84 79 72
35 74 66 42 344 350 47 13 3 3 7 51 192 340 22 10 345 341 338 355 28 48 52 14 14 25 192 151 127 145 339 359 5 21 113 340 307 328 352 37 51 27 36 31 11 65 119 262 235 172 255 264 239 249 256 199 248 247 197 213 231 216 177 182 207 199 155 180 246 228 185 206 235 236 236 234 219 241 280 295 152 139 115 91 94 92 80 63
41 67 52 27 4 199 328 325 329 5 18 359 5 28 35 26 356 304 283 340 2 9 43 95 315 332 338 82 121 137 207 204 316 305 208 133 346 334 356 339 12 33 42 40 10 63 123 248 225 172 292 300 276 262 239 193 247 295 247 226 221 211 205 208 222 205 182 219 243 209 196 224 229 220 225 217 200 233 259 195 160 145 105 85 93 89 70 49
44 44 11 4 18 16 349 334 350 56 18 5 24 18 18 36 355 318 299 15 337 323 30 91 240 294 348 49 100 143 211 178 158 235 186 150 348 263 239 258 235 4 25 53 349 23 101 253 243 123 326 293 284 288 259 193 200 248 258 248 235 237 236 228 232 214 198 243 257 227 224 248 247 228 233 246 241 195 184 179 167 129 99 109 101 78 52 33
43 32 7 1 13 3 354 350 32 76 35 12 19 330 335 330 345 336 300 7 61 28 352 15 183 127 27 38 67 5 306 215 192 226 194 181 226 211 201 208 189 323 354 49 232 8 96 260 342 74 309 268 249 274 277 271 263 255 253 246 232 232 231 220 214 194 186 223 251 244 241 255 250 225 229 252 224 169 177 184 161 115 94 103 88 56 31 14
35 23 2 357 357 2 6 359 24 69 89 358 346 315 297 293 328 1 292 10 45 43 23 18 106 104 49 48 42 335 320 301 275 277 263 244 252 237 233 239 202 201 246 177 240 261 156 188 199 122 253 258 228 243 264 328 318 270 242 222 219 220 222 230 247 227 201 200 219 233 239 243 226 172 171 203 190 169 193 199 142 77 81 94 63 28 11 359